KK7NDB Weather Reports


time (UTC)temp
F
wind
direction
speed
knots
gust
knots
rain 1hr
in
rain 24hr
in
rain mn
in
humidity
%
barometer
mb
20260505070612 50 240 0.9 1.7 0.00 0.00 0.00 66 999.0
20260505070108 51 91 0.0 0.9 0.00 0.00 0.00 65 999.1
20260505065604 51 91 0.0 0.9 0.00 0.00 0.00 65 999.1
20260505065100 51 107 0.0 0.9 0.00 0.00 0.00 65 999.0
20260505064557 51 104 2.6 3.5 0.00 0.00 0.00 63 999.1
20260505064056 51 104 2.6 3.5 0.00 0.00 0.00 63 999.1
20260505063553 51 104 2.6 3.5 0.00 0.00 0.00 63 999.1
20260505063048 52 73 1.7 4.3 0.00 0.00 0.00 61 999.0
20260505062545 52 73 1.7 4.3 0.00 0.00 0.00 61 999.0
20260505062043 52 73 1.7 4.3 0.00 0.00 0.00 61 999.0
20260505061540 52 73 1.7 4.3 0.00 0.00 0.00 61 998.9
20260505061038 52 73 1.7 4.3 0.00 0.00 0.00 61 999.1
20260505060535 52 73 1.7 4.3 0.00 0.00 0.00 61 998.7
20260505060031 52 73 1.7 4.3 0.00 0.00 0.00 61 999.0
20260505055527 52 73 1.7 4.3 0.00 0.00 0.00 61 999.0
20260505055024 52 73 1.7 4.3 0.00 0.00 0.00 61 998.9
20260505054521 52 97 3.5 6.1 0.00 0.00 0.00 61 998.9
20260505054019 52 80 3.5 3.5 0.00 0.00 0.00 61 998.9
20260505053516 52 107 1.7 3.5 0.00 0.00 0.00 61 998.7
20260505053013 52 107 1.7 3.5 0.00 0.00 0.00 61 998.9
20260505052510 52 75 0.9 1.7 0.00 0.00 0.00 60 998.9
20260505052007 52 218 0.9 3.5 0.00 0.00 0.00 62 998.5
20260505051504 52 137 0.9 2.6 0.00 0.00 0.00 63 998.4
20260505051002 52 89 0.0 2.6 0.00 0.00 0.00 62 998.6
20260505050500 53 268 0.0 1.7 0.00 0.00 0.00 56 998.5
20260505041427 53 93 0.9 1.7 0.00 0.00 0.00 55 997.8
20260505040925 53 93 0.9 1.7 0.00 0.00 0.00 55 997.9
20260505040422 53 51 1.7 1.7 0.00 0.00 0.00 55 997.9
20260505035919 54 81 2.6 2.6 0.00 0.00 0.00 53 998.4
20260505035415 54 81 2.6 2.6 0.00 0.00 0.00 53 998.0
20260505034912 54 80 2.6 2.6 0.00 0.00 0.00 53 997.9
20260505034409 55 89 2.6 2.6 0.00 0.00 0.00 53 997.8
20260505033906 55 89 2.6 2.6 0.00 0.00 0.00 53 997.6
20260505033402 55 84 4.3 4.3 0.00 0.00 0.00 53 997.7
20260505032901 0 0.0 0.0 0.00 0.00 0.00 997.7
20260505032357 0 0.0 0.0 0.00 0.00 0.00 997.7
20260505031854 0 0.0 0.0 0.00 0.00 0.00 997.6
20260505031351 0 0.0 0.0 0.00 0.00 0.00 997.8
20260505030848 0 0.0 0.0 0.00 0.00 0.00 997.6
20260505030344 0 0.0 0.0 0.00 0.00 0.00 997.6
20260505025839 0 0.0 0.0 0.00 0.00 0.00 997.6
20260505025337 0 0.0 0.0 0.00 0.00 0.00 997.7
20260505024836 0 0.0 0.0 0.00 0.00 0.00 997.7
20260505024333 0 0.0 0.0 0.00 0.00 0.00 997.6
20260505023830 0 0.0 0.0 0.00 0.00 0.00 997.8
20260505023327 58 106 0.0 0.9 0.00 0.00 0.00 48 997.6
20260505022824 58 106 0.0 0.9 0.00 0.00 0.00 48 997.8
20260505022321 58 106 0.0 0.9 0.00 0.00 0.00 48 998.0
20260505021818 58 106 0.0 0.9 0.00 0.00 0.00 48 997.7
20260505021315 58 106 0.0 0.9 0.00 0.00 0.00 48 997.9
20260505020810 58 106 0.0 0.9 0.00 0.00 0.00 48 997.8
20260505020306 58 106 0.0 0.9 0.00 0.00 0.00 48 997.8
20260505015803 58 106 0.0 0.9 0.00 0.00 0.00 48 998.0
20260505015300 58 106 0.0 0.9 0.00 0.00 0.00 48 997.8
20260505014758 58 106 0.0 0.9 0.00 0.00 0.00 48 997.9
20260505014255 58 106 0.0 0.9 0.00 0.00 0.00 48 997.8
20260505013751 58 283 0.9 3.5 0.00 0.00 0.00 48 997.9
20260505013248 58 118 0.0 1.7 0.00 0.00 0.00 46 997.7
20260505012746 59 227 1.7 2.6 0.00 0.00 0.00 45 997.8
20260505012244 59 49 0.0 1.7 0.00 0.00 0.00 44 997.7
20260505011739 60 128 0.0 1.7 0.00 0.00 0.00 43 997.7
20260505011237 60 233 0.0 0.9 0.00 0.00 0.00 43 997.7
20260505010732 60 92 1.7 1.7 0.00 0.00 0.00 40 997.6
20260505010228 61 43 0.9 0.9 0.00 0.00 0.00 40 997.3
20260505005725 61 58 1.7 1.7 0.00 0.00 0.00 39 997.6
20260505005222 62 38 3.5 4.3 0.00 0.00 0.00 39 997.3
20260505004719 62 38 3.5 4.3 0.00 0.00 0.00 39 997.4
20260505004216 62 38 3.5 4.3 0.00 0.00 0.00 39 997.4
20260505003713 62 38 3.5 4.3 0.00 0.00 0.00 39 997.6
20260505003211 62 38 3.5 4.3 0.00 0.00 0.00 39 997.4
20260505002707 61 71 2.6 3.5 0.00 0.00 0.00 41 997.7
20260505002205 61 71 2.6 5.2 0.00 0.00 0.00 41 997.6
20260505001701 60 66 4.3 4.3 0.00 0.00 0.00 42 997.9
20260505001159 60 224 0.0 0.0 0.00 0.00 0.00 42 997.8
20260505000656 60 224 0.0 0.0 0.00 0.00 0.00 42 997.8
20260505000154 60 129 0.0 0.9 0.00 0.00 0.00 41 998.0
20260504235650 60 129 0.0 0.9 0.00 0.00 0.00 41 997.9
20260504235146 60 55 1.7 2.6 0.00 0.00 0.00 48 998.0
20260504234644 60 55 1.7 2.6 0.00 0.00 0.00 48 998.1
20260504234141 60 55 1.7 2.6 0.00 0.00 0.00 48 998.1
20260504233637 60 55 1.7 2.6 0.00 0.00 0.00 48 998.3
20260504233133 60 55 1.7 2.6 0.00 0.00 0.00 48 998.3
20260504232631 60 55 1.7 2.6 0.00 0.00 0.00 48 998.0
20260504232127 60 55 1.7 2.6 0.00 0.00 0.00 48 998.3
20260504231624 60 55 1.7 2.6 0.00 0.00 0.00 48 998.0
20260504231120 59 252 1.7 4.3 0.00 0.00 0.00 49 998.1
20260504230616 60 122 0.9 4.3 0.00 0.00 0.00 45 998.1
20260504230116 60 122 0.9 4.3 0.00 0.00 0.00 45 998.3
20260504225613 60 122 0.9 4.3 0.00 0.00 0.00 45 998.4
20260504225109 60 122 0.9 4.3 0.00 0.00 0.00 45 998.4
20260504224606 60 122 0.9 4.3 0.00 0.00 0.00 45 998.6
20260504224103 60 250 1.7 4.3 0.00 0.00 0.00 41 998.9
20260504223600 60 250 1.7 4.3 0.00 0.00 0.00 41 998.9
20260504223055 59 230 1.7 4.3 0.00 0.00 0.00 42 998.9
20260504222553 60 230 2.6 6.1 0.00 0.00 0.00 40 998.9
20260504222050 61 232 1.7 2.6 0.00 0.00 0.00 38 998.6
20260504221547 61 232 1.7 2.6 0.00 0.00 0.00 38 998.5
20260504221044 61 232 1.7 2.6 0.00 0.00 0.00 38 998.5
20260504220540 63 181 0.0 1.7 0.00 0.00 0.00 35 998.5
20260504220037 63 181 0.0 1.7 0.00 0.00 0.00 35 998.4
20260504215534 63 181 0.0 1.7 0.00 0.00 0.00 35 998.3
20260504215032 63 181 0.0 1.7 0.00 0.00 0.00 35 998.3
20260504214527 63 181 0.0 1.7 0.00 0.00 0.00 35 998.4
20260504214024 65 79 3.5 3.5 0.00 0.00 0.00 35 998.4
20260504213521 65 121 0.9 2.6 0.00 0.00 0.00 33 998.0
20260504213018 65 40 2.6 4.3 0.00 0.00 0.00 32 997.9
20260504212513 66 26 1.7 1.7 0.00 0.00 0.00 33 997.9
20260504212011 64 96 6.1 7.0 0.00 0.00 0.00 32 997.8
20260504211508 65 102 7.0 7.8 0.00 0.00 0.00 32 997.8
20260504211005 67 101 8.7 13.9 0.00 0.00 0.00 30 997.6
20260504210502 66 83 6.1 10.4 0.00 0.00 0.00 32 997.6
20260504205958 66 93 8.7 13.0 0.00 0.00 0.00 31 997.7
20260504205456 66 102 11.3 11.3 0.00 0.00 0.00 32 997.6
20260504204954 66 71 7.0 8.7 0.00 0.00 0.00 32 997.8
20260504204452 68 102 14.8 19.1 0.00 0.00 0.00 31 997.7
20260504203951 68 102 14.8 19.1 0.00 0.00 0.00 31 997.7
20260504203448 69 65 2.6 3.5 0.00 0.00 0.00 32 997.8
20260504202944 70 265 0.9 1.7 0.00 0.00 0.00 29 997.8
20260504202441 71 238 1.7 1.7 0.00 0.00 0.00 25 997.7
20260504201938 72 236 1.7 3.5 0.00 0.00 0.00 25 997.8
20260504201435 68 252 1.7 1.7 0.00 0.00 0.00 26 997.8
20260504200932 68 252 1.7 1.7 0.00 0.00 0.00 26 997.9
20260504200429 71 219 3.5 3.5 0.00 0.00 0.00 25 998.0
20260504195926 70 239 1.7 1.7 0.00 0.00 0.00 25 997.8
20260504195422 69 329 1.7 1.7 0.00 0.00 0.00 32 998.0
20260504194918 68 245 0.9 2.6 0.00 0.00 0.00 28 998.3
20260504194414 69 264 0.0 0.9 0.00 0.00 0.00 28 998.0
20260504193910 69 126 2.6 2.6 0.00 0.00 0.00 27 998.0
20260504193408 70 222 0.0 4.3 0.00 0.00 0.00 27 998.1
20260504192907 70 247 4.3 4.3 0.00 0.00 0.00 26 998.1
20260504192403 70 253 3.5 5.2 0.00 0.00 0.00 28 998.0
20260504191902 72 267 0.9 2.6 0.00 0.00 0.00 27 998.1
20260504191400 71 278 0.9 1.7 0.00 0.00 0.00 25 998.3
20260504190855 71 253 1.7 3.5 0.00 0.00 0.00 27 998.1
20260504190351 71 67 3.5 3.5 0.00 0.00 0.00 24 998.4
20260504185848 69 200 0.0 1.7 0.00 0.00 0.00 26 998.5
20260504185345 68 144 1.7 5.2 0.00 0.00 0.00 26 998.5
20260504184841 69 229 3.5 6.1 0.00 0.00 0.00 27 998.5
20260504184337 69 54 0.9 4.3 0.00 0.00 0.00 29 998.6
20260504183832 68 231 1.7 5.2 0.00 0.00 0.00 32 998.6
20260504183330 69 239 3.5 9.6 0.00 0.00 0.00 30 998.6
20260504182828 68 265 3.5 5.2 0.00 0.00 0.00 32 998.6
20260504182325 67 244 3.5 7.8 0.00 0.00 0.00 32 998.9
20260504181822 67 259 5.2 6.1 0.00 0.00 0.00 32 999.0
20260504181319 68 354 1.7 9.6 0.00 0.00 0.00 32 998.5
20260504180818 70 232 4.3 7.8 0.00 0.00 0.00 30 998.6
20260504180316 71 231 2.6 7.8 0.00 0.00 0.00 32 998.6
20260504175814 70 274 1.7 2.6 0.00 0.00 0.00 30 998.7
20260504175311 71 269 1.7 1.7 0.00 0.00 0.00 30 999.0
20260504174809 72 280 2.6 4.3 0.00 0.00 0.00 29 999.0
20260504174306 69 20 2.6 5.2 0.00 0.00 0.00 31 999.1
20260504173802 69 0 0.0 2.6 0.00 0.00 0.00 32 999.0
20260504173259 69 228 3.5 5.2 0.00 0.00 0.00 31 999.2
20260504172756 70 264 5.2 5.2 0.00 0.00 0.00 29 999.3
20260504172253 70 39 0.0 4.3 0.00 0.00 0.00 31 999.1
20260504171749 66 157 0.0 1.7 0.00 0.00 0.00 33 999.2
20260504171246 65 57 3.5 5.2 0.00 0.00 0.00 34 999.6
20260504170743 68 92 3.5 3.5 0.00 0.00 0.00 38 999.5
20260504170240 65 1 0.0 5.2 0.00 0.00 0.00 34 999.2
20260504160159 62 68 0.0 1.7 0.00 0.00 0.00 39 1000.0
20260504151126 55 23 0.0 1.7 0.00 0.00 0.00 45 1000.5
20260504150624 54 244 0.0 1.7 0.00 0.00 0.00 49 1000.5
20260504150121 55 220 1.7 1.7 0.00 0.00 0.00 48 1000.6
20260504141049 50 62 2.6 2.6 0.00 0.00 0.00 47 1000.9
20260504140546 49 119 0.0 1.7 0.00 0.00 0.00 47 1000.8
20260504130510 44 67 0.9 2.6 0.00 0.00 0.00 49 1000.5
20260504110352 0 0.0 0.0 0.00 0.00 0.00 1000.6
20260504100309 45 152 1.7 3.5 0.00 0.00 0.00 46 1000.8
20260504081702 46 93 2.6 2.6 0.00 0.00 0.00 43 1000.4
20260504081158 46 93 2.6 2.6 0.00 0.00 0.00 43 1000.5
20260504080655 46 93 2.6 2.6 0.00 0.00 0.00 43 1000.5
20260504080152 46 93 2.6 2.6 0.00 0.00 0.00 43 1000.4